Regional Weather Roundup
Issued by NWS

Home | Current Version | Previous Version | Text Only | Print | Product List | Glossary On
Versions: 1 2 3 4 5 6 7 8 9 10 11 12 13 14 15 16 17 18 19 20 21 22 23 24 25 26 27 28 29 30 31 32 33 34 35 36 37 38 39 40 41 42 43 44 45 46 47 48 49 50
191
ASUS45 KBOU 311507
RWRCO

WEATHER ROUNDUP FOR COLORADO
NATIONAL WEATHER SERVICE DENVER/BOULDER CO
900 AM MDT TUE MAY 31 2016

NOTE: "FAIR" INDICATES FEW OR NO CLOUDS BELOW 12000 FEET WITH NO
SIGNIFICANT WEATHER AND/OR OBSTRUCTIONS TO VISIBILITY.

COZ001>005-013-030-031-311600-
...NORTHWEST COLORADO...

CITY           SKY/WX    TMP DP  RH WIND       PRES   REMARKS
CRAIG          FAIR      52  39  61 NW3       30.16S
HAYDEN         FAIR      52  37  58 CALM      30.16S
MEEKER         FAIR      51  35  54 CALM      30.15S
MOUNT WERNER   NOT AVBL
STEAMBOAT SPGS PTSUNNY   49  36  59 CALM      30.16F
WALDEN         NOT AVBL
$$

COZ006>008-011-311600-
...WEST CENTRAL VALLEYS...

CITY           SKY/WX    TMP DP  RH WIND       PRES   REMARKS
GRAND JUNCTION FAIR      64  36  35 SE9       30.05S
MONTROSE       FAIR      62  32  32 CALM      30.11F
EAGLE          SUNNY     52  34  50 CALM      30.18F
RIFLE          FAIR      58  36  43 VRB7      30.11F
DELTA          FAIR      62  33  33 SE3       30.09F
NUCLA          FAIR      59  32  36 CALM      30.11F
$$

COZ017>023-064>068-311600-
...SOUTHWEST COLORADO...

CITY           SKY/WX    TMP DP  RH WIND       PRES   REMARKS
DURANGO        FAIR      60  30  32 SW3       30.10S
CORTEZ         FAIR      60  30  32 CALM      30.06F
PAGOSA SPRINGS FAIR      61  27  27 CALM      30.16S
TELLURIDE      FAIR      53  27  37 CALM      30.24F
WOLF CREEK PAS FAIR      43  19  39 CALM      30.41S
$$

COZ009-010-012-014-032>034-037-058>063-311600-
...CENTRAL COLORADO...

CITY           SKY/WX    TMP DP  RH WIND       PRES   REMARKS
ASPEN          FAIR      53  33  46 CALM      30.16F
BUENA VISTA    FAIR      53  29  40 CALM      30.22S
COPPER MTN     NOT AVBL
BERTHOUD PASS  FAIR      32  25  74 SW8G17    30.38S WCI  25
COTTONWOOD PAS FAIR      50  28  43 E8        30.29S
GUNNISON       FAIR      45  30  57 N3        30.25S
KREMMLING      FAIR      41  36  81 CALM      30.22S
LEADVILLE      FAIR      46  26  45 CALM      30.27S
MONARCH PASS   FAIR      41  21  45 MISG      30.48S
SALIDA         FAIR      51  33  50 N5        30.29S
SUNLIGHT       FAIR      45  32  61 CALM      30.35S
WILKERSON PASS FAIR      39  32  75 SW5       30.38R
$$

COZ069>075-311600-
...SAN LUIS VALLEY/SANGRE DE CRISTO MOUNTAINS...

CITY           SKY/WX    TMP DP  RH WIND       PRES   REMARKS
ALAMOSA        FAIR      54  34  46 VRB5      30.17S
LA VETA PASS   SNOW      37  36  93 NE12      30.31S VSB<1/4
SAGUACHE       FAIR      55  30  38 NW10      30.19S
$$

COZ035-036-038>040-311600-
...NORTHERN COLORADO FRONT RANGE...

CITY           SKY/WX    TMP DP  RH WIND       PRES   REMARKS
DENVER INTL AP CLOUDY    50  42  74 CALM      30.17F
DMNS CITY PARK   N/A     55  40  56 E2G12     30.17F
AURORA         CLOUDY    49  43  80 CALM      30.18F
FRONT RANGE AP CLOUDY    46  41  81 N5        30.18
ERIE MUNI ARPT CLOUDY    52  40  64 CALM      30.17F
BOULDER MUN AP CLOUDY    54  37  54 CALM      30.16F
CENTENNIAL     PTSUNNY   52  42  69 CALM      30.17F
BROOMFIELD     PTSUNNY   50  39  66 CALM      30.18F
FORT COLLINS   PTSUNNY   52  39  62 SE6       30.18S
LONGMONT       FAIR      56  42  58 E8        30.19F
$$

COZ041-046-047-076>085-087-088-311600-
...PIKES PEAK/PALMER DIVIDE AND SOUTHERN FOOTHILLS...

CITY           SKY/WX    TMP DP  RH WIND       PRES   REMARKS
COLO. SPRINGS  FAIR      57  43  59 NE12      30.18F
A. F. ACADEMY  FAIR      54  43  66 N3        30.17F
SCHRIEVER AFB  NOT AVBL
ELLICOTT       NOT AVBL
FALCON         FAIR      51  43  72 N7        30.21S
FORT CARSON    FAIR      57  44  62 VRB7      30.16S
LIMON          CLOUDY    49  45  86 NE14      30.17S
MONUMENT HILL  CLOUDY    45  43  93 NE5       30.22S
TRINIDAD       CLOUDY    57  44  62 N10       30.16R
$$

COZ042>045-048>051-090-091-311600-
...NORTHEAST COLORADO...

CITY           SKY/WX    TMP DP  RH WIND       PRES   REMARKS
GREELEY ARPT   CLOUDY    54  39  58 SW5       30.17S
AKRON          CLOUDY    55  40  56 CALM      30.14F
BURLINGTON     FAIR      59  44  57 N13       30.13R
WRAY           NOT AVBL
STERLING       CLOUDY    55  43  62 N5        30.12F
HOLYOKE        PTSUNNY   59  50  72 N9        30.14S
FORT MORGAN    CLOUDY    55  42  61 CALM      30.15F
$$

COZ086-089-092>099-311600-
...SOUTHEAST COLORADO...

CITY           SKY/WX    TMP DP  RH WIND       PRES   REMARKS
PUEBLO         PTSUNNY   62  46  55 NE13      30.15R
LA JUNTA       FAIR      64  49  57 NE14G24   30.10S
LAMAR          CLOUDY    62  51  67 NE12      30.07R
SPRINGFIELD      N/A     60  53  77 N6        30.06S
$$




USA.gov is the U.S. government's official web portal to all federal, state and local government web resources and services.